Other Public Products
Issued by NWS Grand Forks, ND

Home | Current Version | Previous Version | Text Only | Print | Product List | Glossary Off
Versions: 1 2 3 4 5 6 7 8 9 10 11 12 13 14 15 16 17 18 19 20 21 22 23 24 25 26 27 28 29 30 31 32 33 34 35 36 37 38 39 40 41 42 43 44 45 46 47 48 49 50

000
FPUS83 KFGF 290431
OPUFGF
PRAIRIE TO PINES WEATHER ROUNDUP
NATIONAL WEATHER SERVICE EASTERN NORTH DAKOTA/GRAND FORKS ND
1100 PM CDT THU AUG 28 2014

 **SATELLITE DATA USED TO AUGMENT SKY COVER AT AUTOMATED STATIONS**
 *****  WEATHER ACROSS EASTERN NORTH DAKOTA  *****

CITY           SKY/WX    TMP DP  RH WIND       PRES   REMARKS
GRAND FORKS    CLOUDY    68  64  87 S10       29.85F
GRAND FORKS AF CLOUDY    68  67  99 S10       29.85F
GRAND CITY NWS   N/A     66 N/A N/A S7          N/A
BUXTON           N/A     66  66  98 SE3         N/A
DEVILS LAKE    MOCLDY    66  61  82 S13       29.81S
FARGO          CLOUDY    67  64  90 S7        29.86S
WAHPETON ARPT  CLOUDY    64  61  88 SE6       29.86F
$$

 *****  WEATHER ACROSS CENTRAL AND WESTERN NORTH DAKOTA  *****

CITY           SKY/WX    TMP DP  RH WIND       PRES   REMARKS
JAMESTOWN      CLOUDY    66  65  96 S8        29.85F FOG
BISMARCK       MOCLDY    64  63  96 SE5       29.84F
MINOT          CLOUDY    71  66  84 S10       29.75F
MINOT AFB      MOCLDY    70  70  99 S10       29.75F
GARRISON         N/A     69  67  93 S9        29.80F
WILLISTON      CLEAR     72  50  45 W12       29.77F
DICKINSON      CLEAR     64  58  80 S9        29.83S
HETTINGER      CLEAR     66  56  70 S5        29.88F
$$

 *****  OTHER OBSERVATIONS NORTHEAST NORTH DAKOTA  *****

CITY           SKY/WX    TMP DP  RH WIND       PRES   REMARKS
WALHALLA         N/A     66  66 100 SE7       29.79F
LANGDON        FAIR      64  64 100 S12       29.81F
CAVALIER       FAIR      66  64  94 S12       29.80F
GRAFTON        CLOUDY    66  66 100 S12       29.82F
CANDO          FAIR      66  64  94 S9G17     29.80F
FORT TOTTEN      N/A     65  64  97 S8        29.95
ROLLA          FAIR      64  64 100 SW8       29.80F
RUGBY          FAIR      66  66 100 S8        29.78F
 ***** THE ABOVE OBSERVATIONS ARE NON NWS ARE NOT QUALITY
        CONTROLLED AND MAY MIS-REPORT RAIN FOR SNOW...
$$

 *****  OTHER OBSERVATIONS SOUTHEAST NORTH DAKOTA *****

CITY           SKY/WX    TMP DP  RH WIND       PRES   REMARKS
COOPERSTOWN    NOT AVBL
VALLEY CITY    CLOUDY    66  66 100 S8        29.86F
OAKES            N/A     64  64 100 E9        29.83F
GWINNER        CLOUDY    66  66 100 E5        29.87F
SHEYENNE NWR     N/A     65  64  97 SE6       29.95S
BUFFALO          N/A     66  63  90 CALM        N/A
WYNDMERE       NOT AVBL
 ***** THE ABOVE OBSERVATIONS ARE NON NWS ARE NOT QUALITY
       CONTROLLED AND MAY MIS-REPORT RAIN FOR SNOW...
$$

  *****  WEATHER ACROSS NORTHERN MINNESOTA  *****

CITY           SKY/WX    TMP DP  RH WIND       PRES   REMARKS
FLAG ISLAND    CLOUDY    68  64  88 S10       29.85F
WARROAD        CLOUDY    66  64  94 S6        29.87F
ROSEAU         MOCLDY    68  63  83 S7        29.86F
HALLOCK        CLOUDY    70  64  83 S13       29.82F
THF RVR FALLS  CLOUDY    64  61  88 S6        29.87F
HALSTAD          N/A     64  63  95 SW2         N/A
FOSSTON        CLOUDY    63  59  88 SE8       29.89S
BAUDETTE       CLOUDY    66  61  84 S7        29.89S
WASKISH        CLOUDY    64  61  88 S5        29.89F
CROOKSTON      CLOUDY    66  63  88 SW3       29.87F
$$
  *****  WEATHER ACROSS CENTRAL AND WEST MINNESOTA  *****

CITY           SKY/WX    TMP DP  RH WIND       PRES   REMARKS
BEMIDJI        CLOUDY    64  61  91 SE12      29.90F
PARK RAPIDS    CLOUDY    64  63  96 SE7       29.91F
WADENA         DRIZZLE   63  63 100 SE7       29.90S
DETROIT LAKES  CLOUDY    64  63  94 SE9       29.90F FOG
MOORHEAD       CLOUDY    66  66 100 S6        29.87S
FERGUS FALLS   DRIZZLE   64  63  94 SE3       29.87F
ELBOW LAKE     CLOUDY    64  64  97 SE7       29.87F
MORRIS MN      CLOUDY    66  66 100 SE9G16    29.86S FOG
STAPLES        DRIZZLE   63  63 100 SE3       29.91S
WHEATON        CLOUDY    63  63 100 E5        29.87F
$$
  *****  WEATHER ELSEWHERE ACROSS MINNESOTA  *****

CITY           SKY/WX    TMP DP  RH WIND       PRES   REMARKS
DULUTH         CLOUDY    60  55  83 E7        29.97F
INTRNTL FALLS  LGT RAIN  64  60  87 S3        29.91F
ELY            CLOUDY    61  50  67 S6        29.96F
CLOQUET        CLOUDY    61  55  82 CALM      29.96S
BRAINERD       CLOUDY    64  62  93 SE6       29.93S
HIBBING        CLOUDY    61  55  81 SE5       29.96F
ALEXANDRIA     CLOUDY    65  64  97 SE10      29.90F FOG
SAINT CLOUD    CLOUDY    68  64  87 SE7       29.91F FOG
MINNEAPOLIS    CLOUDY    67  64  90 SE10      29.92S
$$

  *****  WEATHER ACROSS SOUTH DAKOTA  *****

CITY           SKY/WX    TMP DP  RH WIND       PRES   REMARKS
SIOUX FALLS    CLOUDY    72  70  93 S7        29.82F FOG
BROOKINGS      NOT AVBL
WATERTOWN      FOG       65  65 100 E8        29.85F VSB 3/4
HURON          LGT RAIN  69  68  96 E3        29.81S
SISSETON         N/A     65  65 100 SE6       29.85F
ABERDEEN       CLOUDY    65  65 100 CALM      29.85R
MITCHELL       CLOUDY    71  70  96 SE3       29.82R FOG
PIERRE         CLOUDY    68  67  96 NE5       29.84S
MOBRIDGE       PTCLDY    65  65 100 E5        29.84S
RAPID CITY     PTCLDY    60  58  92 CALM      29.93F
$$

  *****  SOME WEATHER IN NEARBY STATES *****

CITY           SKY/WX    TMP DP  RH WIND       PRES   REMARKS
GLASGOW MT     CLEAR     67  57  70 NE8       29.80F
GREAT FALLS MT CLOUDY    59  49  69 N17G26    30.06R
CHEYENNE WY    CLEAR     54  51  90 SW8       30.15S
SCOTTSBLUFF NE PTCLDY    56  54  93 E5        30.02R
OMAHA NE       MOCLDY    74  70  87 SE7       29.85R
DES MOINES IA  TSTM      70  67  90 W3        29.93F VSB 1
DAVENPORT IA   PTCLDY    69  66  90 SE10      29.99R
CHICAGO IL     CLOUDY    70  62  76 E5        30.04S
EAU CLAIRE WI  CLOUDY    65  64  97 SE12      29.97S
LA CROSSE WI   CLOUDY    67  64  90 SE7       29.96S
$$

  *****  SOME NATIONAL WEATHER *****

CITY           SKY/WX    TMP DP  RH WIND       PRES   REMARKS
LA GUARDIA NY  PTCLDY    68  50  52 N8        30.05R
RALEIGH NC     PTCLDY    75  71  87 CALM      30.02S
ATLANTA GA     PTCLDY    79  57  46 CALM      30.04R
NEW ORLEANS LA PTCLDY    82  74  76 SE6       29.97R
OKLAHOMA CITY  LGT RAIN  70  64  81 SW18G29   29.95F
ALBUQUERQUE NM CLEAR     74  41  30 N7        30.14R
SALT LAKE CITY PTCLDY    69  45  41 S6        30.10R
LOS ANGELES CA CLEAR     75  52  44 W13       29.89R
BOISE ID       CLEAR     76  38  25 S6        29.93S
SEATTLE WA     MOCLDY    69  59  70 SW6       30.05R
$$

*** WEATHER ACROSS MANITOBA...SASKATCHEWAN AND ONTARIO ***
                ***ONTARIO***

CITY           SKY/WX    TMP DP  RH WIND       PRES   REMARKS
GERALDTON      CLEAR     54  45  71 S7        30.01S
THUNDER BAY    MOCLDY    54  50  87 W2        30.00F
SIOUX LOOKOUT  MOCLDY    66  57  72 SW8       29.88F
TORONTO        PTCLDY    59  48  67 N7        30.16R
BIG TROUT LK   CLOUDY    66  54  63 SW12      29.68S
PICKLE LAKE    NOT AVBL
DRYDEN         MOCLDY    66  59  77 SW14G20   29.89F
KENORA         MOCLDY    66  61  82 S12       29.86F
$$
                *** MANITOBA***

CITY           SKY/WX    TMP DP  RH WIND       PRES   REMARKS
BRANDON        PTCLDY    72  64  78 VRB9G24   29.74R
DAUPHIN        RAIN      64  63  94 VRB2      29.77R FOG
ISLAND LAKE    NOT AVBL
PILOT MOUND      N/A     66  64  94 S12         N/A
THE PAS        PTCLDY    63  54  72 NW10      29.78S
THOMPSON       MOCLDY    50  50 100 S2        29.69R
WINNIPEG       PTCLDY    68  66  94 S16       29.76F
LYNN LAKE      LGT RAIN  52  46  82 MISG      29.76R
CHURCHILL      PTCLDY    54  48  82 NW15G22   29.59R
GILLAM         MOCLDY    55  52  88 SW7       29.65R
$$
                ***SASKATCHEWAN***

CITY           SKY/WX    TMP DP  RH WIND       PRES   REMARKS
ESTEVAN        PTCLDY    66  61  82 N8        29.75S
KINDERSLEY     CLOUDY    55  54  94 NW7       29.99R
LLOYDMINSTER   CLEAR     50  43  76 NW6       29.98R
PRINCE ALBERT  MOCLDY    52  48  87 N9        29.90R
REGINA         CLOUDY    66  55  68 N8        29.84R



USA.gov is the U.S. government's official web portal to all federal, state and local government web resources and services.